Location: Newark
(33.6439°N, 114.9881°W)
Time: 00:44:21
(UTC+00:00)

Hubble Space Telescope - Visible Passes

Search period start: 20 March 2019 00:00
Search period end: 30 March 2019 00:00
Orbit: 537 x 540 km, 28.5° (Epoch: 18 March)

Date Brightness Start Highest point End Pass type
(mag) Time Alt. Az. Time Alt. Az. Time Alt. Az.
23 Mar 2.9 02:56:02 10° S 02:57:35 12° SSE 02:57:54 12° SSE visible
24 Mar 2.7 02:44:39 10° SSW 02:46:59 15° SSE 02:48:24 13° SE visible
25 Mar 2.6 02:33:35 10° SSW 02:36:25 18° SSE 02:38:49 12° ESE visible
25 Mar 3.3 04:13:22 10° WSW 04:14:11 15° SW 04:14:11 15° SW visible
26 Mar 2.4 02:22:42 10° SSW 02:25:51 21° SSE 02:29:00 10° ESE visible
26 Mar 2.7 04:02:47 10° WSW 04:04:32 22° SW 04:04:32 22° SW visible
27 Mar 2.1 03:52:14 10° WSW 03:54:48 30° SW 03:54:48 30° SW visible
28 Mar 1.6 03:41:42 10° WSW 03:45:02 38° SSW 03:45:02 38° SSW visible
29 Mar 1.4 03:31:11 10° WSW 03:35:04 40° S 03:35:13 40° S visible
